[[{"header":{"parameterUnit":"m.s-1","parameterCategory":2,"la1":30.2991,"la2":30.254,"lo1":-89.0895,"lo2":-89.0444,"dy":0.0017,"dx":0.0017,"nx":28,"ny":28,"refTime":"2025-01-08T03:00:00:Z","depth":"0","parameterNumber":2,"parameterNumberName":"U-component_of_CURRENTS"},"data":[0,0,0,0,0,0,0,0,0,0,0,0,0,0,0,0,0,0,0,0,0,0,0,0,0,0,0,0,0,0,0,0,0,0,0,0,0,0,0,0,0,0,0,0,0,0,0,0,0,0,0,0,0,0,0,0,0,0,0.2464,0.2464,0,0.2516,0.2517,0.2517,0.2548,0.2548,0.2548,0.2549,0.2579,0.2579,0.258,0,0,0,0,0,0,0,0,0,0,0,0,0,0.2408,0.2409,0.2464,0.2464,0.2465,0.2516,0.2517,0.2517,0.2548,0.2548,0.2548,0.2549,0.2578,0.2579,0.258,0,0,0,0,0,0,0,0,0,0,0,0,0,0.2443,0.2409,0.2464,0.2488,0.249,0.2516,0.2517,0.2518,0.2548,0.2548,0.2549,0.2549,0.2578,0.2579,0.258,0.2578,0,0,0.2583,0.2583,0,0,0,0,0,0,0,0,0.2441,0.2444,0.2483,0.2486,0.2489,0.2527,0.2509,0.2537,0.2548,0.2525,0.2549,0.2549,0.256,0.2562,0.257,0.258,0.2581,0.2583,0.2583,0.2584,0.2584,0,0,0,0,0,0,0,0.2438,0.2442,0.2483,0.2484,0.2488,0.2502,0.2507,0.2514,0.2538,0.2527,0.2529,0.2537,0.2561,0.2569,0.2571,0.2581,0.2583,0.2583,0.2584,0.2584,0.2629,0.2629,0,0,0,0,0,0,0.2433,0.244,0.2482,0.2485,0.2467,0.2503,0.2508,0.2513,0.2539,0.2543,0.2537,0.2538,0.2567,0.257,0.2572,0.2603,0.2584,0.2584,0.2585,0.2628,0.2629,0.2629,0,0,0,0,0,0,0.2431,0.2436,0.248,0.2465,0.2472,0.2503,0.2509,0.2514,0.2529,0.2547,0.2551,0.2547,0.2568,0.2571,0.2588,0.2603,0.2585,0.2586,0.2627,0.2628,0.2629,0.2645,0,0,0,0,0,0,0.243,0.2435,0.2435,0.2464,0.2472,0.2498,0.2509,0.2515,0.2533,0.2536,0.2557,0.256,0.2568,0.2586,0.2588,0.2604,0.2586,0.2626,0.2628,0.2629,0.2644,0.2647,0.2649,0,0,0,0,0,0.2427,0.2421,0.2434,0.244,0.2472,0.2498,0.2503,0.2526,0.2534,0.254,0.2557,0.2559,0.2596,0.2587,0.259,0.2606,0.2626,0.2627,0.2629,0.2643,0.2646,0.2649,0,0,0,0,0,0,0.2393,0.2425,0.244,0.2443,0.2472,0.2504,0.2509,0.2528,0.2546,0.2549,0.2564,0.2568,0.2593,0.2594,0.2584,0.2623,0.2612,0.2614,0.2622,0.2626,0.2628,0.2608,0.2587,0,0,0,0,0,0.2387,0.2391,0.243,0.2431,0.2446,0.2479,0.2492,0.2512,0.2534,0.2543,0.2562,0.258,0.26,0.2607,0.2624,0.2638,0.2642,0.2651,0.2654,0.2656,0.2642,0.2669,0.2672,0.2634,0.2634,0.2634,0,0,0.2372,0.2391,0.2392,0.2425,0.2447,0.247,0.2487,0.2509,0.2527,0.2542,0.2567,0.259,0.2607,0.2631,0.2642,0.2633,0.2673,0.2658,0.266,0.2644,0.267,0.2674,0.2677,0.2635,0.2635,0.2635,0,0,0.2354,0.2365,0.2372,0.2397,0.2435,0.2458,0.2466,0.2508,0.2524,0.2547,0.2574,0.2601,0.2621,0.2647,0.2658,0.2681,0.2689,0.2693,0.2685,0.2712,0.2715,0.2718,0.2741,0.2746,0.269,0.269,0.269,0,0.234,0.2356,0.2377,0.2398,0.2419,0.2453,0.2476,0.2494,0.2536,0.2557,0.2552,0.2612,0.2626,0.2668,0.2675,0.2686,0.27,0.2673,0.2715,0.2718,0.272,0.2743,0.2748,0.2691,0.2691,0.2691,0.2691,0,0.2338,0.2355,0.2359,0.2398,0.242,0.2442,0.2479,0.2504,0.2524,0.255,0.2594,0.2617,0.2654,0.2668,0.2671,0.271,0.2715,0.272,0.2705,0.2725,0.2748,0.2753,0.2692,0.2692,0.2692,0.2691,0,0,0.2307,0.2352,0.2356,0.2378,0.2427,0.2445,0.2475,0.2521,0.2548,0.2575,0.2614,0.2641,0.2664,0.2677,0.2704,0.2715,0.2749,0.2718,0.2719,0.2737,0.2809,0.2827,0.2834,0.2764,0.2765,0.2765,0.2822,0,0.2309,0.2339,0.2366,0.2398,0.2421,0.2463,0.2488,0.2529,0.2563,0.2606,0.2633,0.2675,0.2665,0.2694,0.2705,0.2751,0.276,0.2732,0.2789,0.279,0.2801,0.2839,0.2804,0.2853,0.2827,0.2828,0.2828,0,0.2308,0.233,0.236,0.241,0.2425,0.2444,0.2503,0.2533,0.2595,0.2625,0.2668,0.2699,0.2742,0.2721,0.2778,0.2765,0.2776,0.2792,0.2795,0.2803,0.2817,0.2828,0.2863,0.2849,0.2835,0.2835,0.2834,0,0.2279,0.2329,0.235,0.2367,0.2423,0.2444,0.2475,0.2536,0.2582,0.2645,0.2692,0.2735,0.2782,0.2792,0.2831,0.2808,0.2887,0.2868,0.2889,0.2891,0.2866,0.2864,0.2887,0.2884,0.2884,0.2884,0.2883,0,0.2272,0.229,0.2335,0.2344,0.2376,0.242,0.2464,0.2509,0.259,0.2643,0.2699,0.2759,0.28,0.2857,0.2854,0.2904,0.2913,0.2891,0.2909,0.2873,0.2871,0.2861,0.2837,0.2886,0.2885,0.2885,0.2884,0,0.2237,0.2267,0.2294,0.2345,0.2361,0.238,0.2462,0.2497,0.2581,0.2658,0.2686,0.2803,0.2876,0.2921,0.2967,0.2959,0.2933,0.2993,0.2949,0.2961,0.2946,0.2925,0.2821,0.2726,0.3016,0.3017,0.3017,0,0.2222,0.223,0.228,0.2291,0.2312,0.2351,0.238,0.2475,0.2525,0.2677,0.2714,0.2836,0.2911,0.3019,0.304,0.3069,0.2967,0.303,0.2968,0.2947,0.2937,0.2803,0.2719,0.2946,0.2946,0.2946,0.2946,0,0.219,0.2205,0.2221,0.2247,0.2272,0.2309,0.2361,0.2406,0.2515,0.2607,0.2719,0.2802,0.295,0.2998,0.3074,0.3073,0.2931,0.3031,0.3021,0.2891,0.2734,0.2652,0.2907,0.2946,0.2946,0.2946,0.2946,0.2946,0.2157,0.2155,0.2171,0.2194,0.222,0.2242,0.2244,0.2325,0.2407,0.2516,0.2647,0.2765,0.2934,0.3057,0.3037,0.3044,0.2944,0.298,0.2959,0.2828,0.2714,0.2971,0.3026,0.3026,0.3026,0.3027,0.3027,0,0.2101,0.2102,0.2118,0.2127,0.2123,0.2166,0.2209,0.2206,0.2259,0.2433,0.2534,0.2755,0.2871,0.2977,0.3083,0.301,0.283,0.2933,0.2742,0.2661,0.2929,0.2907,0.2925,0.2925,0.2925,0.2925,0.2925,0.2925,0.2067,0.2045,0.2053,0.202,0.2025,0.1988,0.1987,0.2024,0.2127,0.228,0.2432,0.2584,0.291,0.3158,0.3162,0.3057,0.279,0.2693,0.2618,0.286,0.2862,0.2864,0.284,0.2844,0.2844,0.226,0.2256,0.2254]},{"header":{"parameterUnit":"m.s-1","parameterCategory":2,"la1":30.2991,"la2":30.254,"lo1":-89.0895,"lo2":-89.0444,"dy":0.0017,"dx":0.0017,"nx":28,"ny":28,"refTime":"2025-01-08T03:00:00:Z","depth":"0","parameterNumber":3,"parameterNumberName":"V-component_of_CURRENTS"},"data":[0,0,0,0,0,0,0,0,0,0,0,0,0,0,0,0,0,0,0,0,0,0,0,0,0,0,0,0,0,0,0,0,0,0,0,0,0,0,0,0,0,0,0,0,0,0,0,0,0,0,0,0,0,0,0,0,0,0,-0.0235,-0.0236,0,-0.0359,-0.0361,-0.0363,-0.0454,-0.0454,-0.0454,-0.0455,-0.0582,-0.0585,-0.0588,0,0,0,0,0,0,0,0,0,0,0,0,0,-0.0206,-0.0206,-0.0235,-0.0236,-0.0237,-0.0359,-0.0361,-0.0364,-0.0454,-0.0454,-0.0454,-0.0455,-0.0581,-0.0585,-0.0589,0,0,0,0,0,0,0,0,0,0,0,0,0,-0.0268,-0.0206,-0.0234,-0.0292,-0.0298,-0.0359,-0.0361,-0.0364,-0.0454,-0.0454,-0.0455,-0.0455,-0.058,-0.0585,-0.0589,-0.0611,0,0,-0.0604,-0.0606,0,0,0,0,0,0,0,0,-0.0264,-0.027,-0.0283,-0.0288,-0.0295,-0.0386,-0.0398,-0.0445,-0.0454,-0.0401,-0.0455,-0.0455,-0.0513,-0.0523,-0.0554,-0.0617,-0.0623,-0.0604,-0.0607,-0.0609,-0.061,0,0,0,0,0,0,0,-0.026,-0.0266,-0.029,-0.0284,-0.0291,-0.0357,-0.0365,-0.0408,-0.0458,-0.0405,-0.0411,-0.0416,-0.0517,-0.0549,-0.0558,-0.0625,-0.0604,-0.0608,-0.0611,-0.0613,-0.0689,-0.0688,0,0,0,0,0,0,-0.0225,-0.0261,-0.0286,-0.0293,-0.0274,-0.0356,-0.0366,-0.0361,-0.0458,-0.0471,-0.0415,-0.0419,-0.0541,-0.0552,-0.0562,-0.0562,-0.0609,-0.0614,-0.0616,-0.069,-0.0689,-0.0688,0,0,0,0,0,0,-0.0224,-0.0226,-0.0281,-0.0276,-0.0287,-0.0354,-0.035,-0.0364,-0.0387,-0.0464,-0.0478,-0.0423,-0.0542,-0.0556,-0.059,-0.0568,-0.0616,-0.062,-0.0691,-0.0689,-0.0688,-0.0581,0,0,0,0,0,0,-0.0223,-0.0225,-0.0214,-0.0273,-0.0285,-0.0298,-0.0349,-0.0366,-0.0387,-0.0394,-0.0475,-0.0488,-0.0543,-0.0583,-0.0595,-0.0576,-0.0624,-0.0692,-0.069,-0.0689,-0.0586,-0.0576,-0.0568,0,0,0,0,0,-0.0221,-0.0197,-0.0213,-0.0216,-0.0267,-0.0296,-0.0309,-0.0364,-0.0387,-0.0389,-0.0445,-0.0485,-0.0581,-0.0586,-0.0601,-0.0582,-0.0692,-0.069,-0.0689,-0.059,-0.0578,-0.0569,0,0,0,0,0,0,-0.0179,-0.0205,-0.0224,-0.0209,-0.0241,-0.0309,-0.0315,-0.035,-0.04,-0.0404,-0.048,-0.0497,-0.0523,-0.0564,-0.0567,-0.0599,-0.0641,-0.0642,-0.0561,-0.0551,-0.0542,-0.0511,-0.0628,0,0,0,0,0,-0.0161,-0.0152,-0.0191,-0.018,-0.0189,-0.025,-0.0269,-0.0301,-0.0349,-0.0372,-0.0428,-0.0482,-0.0528,-0.0546,-0.0598,-0.0611,-0.0643,-0.0607,-0.0598,-0.0591,-0.0575,-0.0606,-0.0598,-0.0681,-0.0681,-0.0681,0,0,-0.0141,-0.0155,-0.015,-0.0171,-0.0203,-0.0207,-0.0264,-0.0278,-0.0283,-0.0376,-0.04,-0.0458,-0.0527,-0.0551,-0.0563,-0.0579,-0.0583,-0.0588,-0.0581,-0.057,-0.0603,-0.0595,-0.0587,-0.068,-0.068,-0.0681,0,0,-0.01,-0.0106,-0.0089,-0.0107,-0.0134,-0.0167,-0.0161,-0.0216,-0.024,-0.0267,-0.0336,-0.0372,-0.0444,-0.0485,-0.0516,-0.0486,-0.0542,-0.0503,-0.0428,-0.0457,-0.045,-0.0444,-0.0468,-0.0465,-0.049,-0.049,-0.049,0,-0.0078,-0.006,-0.009,-0.0081,-0.0086,-0.0139,-0.0124,-0.0154,-0.0214,-0.0226,-0.0255,-0.0354,-0.0409,-0.0437,-0.0428,-0.0464,-0.0492,-0.0461,-0.0444,-0.0439,-0.0435,-0.0461,-0.046,-0.0485,-0.0485,-0.0486,-0.0487,0,-0.0031,-0.0017,-0.0006,-0.0009,-0.0016,-0.0011,-0.0044,-0.0056,-0.0089,-0.0126,-0.016,-0.0238,-0.0294,-0.0315,-0.0363,-0.0362,-0.0394,-0.0435,-0.0466,-0.042,-0.0451,-0.0451,-0.0477,-0.0479,-0.0481,-0.0482,0,0,0.0014,0.0025,0.0028,0.0042,0.0024,0.0026,0.0031,0.0016,0.0022,-0.0032,-0.0036,-0.0107,-0.0152,-0.0189,-0.0254,-0.0272,-0.0268,-0.0329,-0.0333,-0.0342,-0.0329,-0.0352,-0.0355,-0.0309,-0.0308,-0.0308,-0.0358,0,0.0055,0.0098,0.0088,0.0128,0.0148,0.0115,0.0123,0.0105,0.0077,0.0061,-0.0004,-0.0039,-0.0103,-0.0128,-0.0154,-0.0252,-0.0265,-0.025,-0.038,-0.0383,-0.0401,-0.0354,-0.0366,-0.0412,-0.0359,-0.0359,-0.0359,0,0.0102,0.0125,0.0174,0.02,0.0206,0.0218,0.0228,0.0227,0.0194,0.017,0.0133,0.0073,0.0029,-0.0031,-0.0137,-0.0127,-0.0207,-0.0274,-0.0279,-0.0336,-0.0406,-0.0452,-0.0415,-0.0599,-0.0361,-0.036,-0.036,0,0.0151,0.0187,0.0233,0.024,0.0257,0.0271,0.0273,0.0258,0.0275,0.0237,0.0244,0.0167,0.0131,0.003,-0.0105,-0.0122,-0.0222,-0.0272,-0.0362,-0.0365,-0.0417,-0.0425,-0.0563,-0.0327,-0.0327,-0.0327,-0.0327,0,0.0201,0.0236,0.0259,0.0282,0.0337,0.0323,0.037,0.0356,0.0356,0.0387,0.0302,0.0311,0.0147,0.0066,-0.0065,-0.0207,-0.0194,-0.0331,-0.0373,-0.038,-0.0384,-0.0581,-0.0694,-0.0329,-0.0328,-0.0328,-0.0328,0,0.025,0.0261,0.0316,0.0347,0.0362,0.0398,0.0441,0.0476,0.0457,0.0496,0.0493,0.0422,0.0312,0.0149,-0.0024,-0.015,-0.0404,-0.0346,-0.0338,-0.0377,-0.0631,-0.0737,-0.0933,-0.1011,-0.0448,-0.0448,-0.0449,0,0.0277,0.0312,0.0371,0.041,0.0425,0.0476,0.0516,0.0522,0.0569,0.0572,0.0605,0.0516,0.0473,0.0212,-0.0035,-0.0261,-0.0437,-0.0423,-0.0454,-0.0629,-0.0779,-0.0867,-0.0923,-0.0484,-0.0485,-0.0485,-0.0486,0,0.0332,0.0352,0.04,0.0483,0.0536,0.0604,0.0662,0.0719,0.0732,0.0767,0.0794,0.0761,0.0507,0.0276,-0.0046,-0.0221,-0.0572,-0.0444,-0.0634,-0.0815,-0.0912,-0.1011,-0.0467,-0.0492,-0.0492,-0.0491,-0.0491,-0.0491,0.0372,0.0419,0.0485,0.0566,0.0633,0.0721,0.0788,0.0859,0.0942,0.1,0.095,0.0924,0.0562,0.0124,-0.0138,-0.0632,-0.0633,-0.0776,-0.0887,-0.0956,-0.1042,-0.0501,-0.057,-0.057,-0.057,-0.057,-0.0569,0,0.0425,0.0483,0.0564,0.0662,0.0749,0.0769,0.0884,0.0953,0.1061,0.1108,0.1128,0.0918,0.048,0.0018,-0.0629,-0.0989,-0.1135,-0.1208,-0.1346,-0.1379,-0.0904,-0.0915,-0.1052,-0.1051,-0.1051,-0.1051,-0.1051,-0.1051,0.0454,0.0547,0.0595,0.0746,0.0815,0.093,0.0999,0.1092,0.1155,0.1193,0.1162,0.1105,0.0699,-0.044,-0.1258,-0.1451,-0.172,-0.18,-0.1917,-0.1615,-0.1583,-0.1553,-0.1589,-0.1865,-0.1866,-0.2339,-0.2344,-0.2348]}],[{"header":{"parameterUnit":"m.s-1","parameterCategory":2,"la1":30.2991,"la2":30.254,"lo1":-89.0895,"lo2":-89.0444,"dy":0.0017,"dx":0.0017,"nx":28,"ny":28,"refTime":"2025-01-08T03:00:00:Z","depth":"2","parameterNumber":2,"parameterNumberName":"U-component_of_CURRENTS"},"data":[0,0,0,0,0,0,0,0,0,0,0,0,0,0,0,0,0,0,0,0,0,0,0,0,0,0,0,0,0,0,0,0,0,0,0,0,0,0,0,0,0,0,0,0,0,0,0,0,0,0,0,0,0,0,0,0,0,0,0.2393,0.2393,0,0.2453,0.2453,0.2454,0.2495,0.2496,0.2496,0.2497,0.2533,0.2533,0.2534,0,0,0,0,0,0,0,0,0,0,0,0,0,0.2334,0.2335,0.2393,0.2393,0.2394,0.2453,0.2453,0.2454,0.2495,0.2496,0.2496,0.2497,0.2532,0.2533,0.2534,0,0,0,0,0,0,0,0,0,0,0,0,0,0.2372,0.2335,0.2392,0.2423,0.2426,0.2453,0.2453,0.2454,0.2495,0.2496,0.2496,0.2497,0.2532,0.2533,0.2534,0.2526,0,0,0.2536,0.2537,0,0,0,0,0,0,0,0,0.237,0.2374,0.2417,0.2421,0.2425,0.2468,0.2446,0.2478,0.2495,0.2468,0.2497,0.2497,0.2509,0.2512,0.252,0.2528,0.253,0.2537,0.2537,0.2537,0.2538,0,0,0,0,0,0,0,0.2367,0.2372,0.2415,0.2418,0.2423,0.2441,0.2446,0.2452,0.2483,0.247,0.2474,0.2482,0.2511,0.252,0.2522,0.253,0.2537,0.2537,0.2538,0.2538,0.2586,0.2587,0,0,0,0,0,0,0.2361,0.2369,0.2413,0.2417,0.24,0.2441,0.2448,0.2453,0.2483,0.2489,0.2481,0.2484,0.2518,0.2521,0.2523,0.2556,0.2537,0.2538,0.2539,0.2585,0.2586,0.2587,0,0,0,0,0,0,0.2359,0.2364,0.2411,0.2396,0.2403,0.2442,0.2447,0.2454,0.2473,0.2492,0.2498,0.2496,0.2518,0.2522,0.2541,0.2556,0.2539,0.2539,0.2584,0.2586,0.2587,0.2596,0,0,0,0,0,0,0.2357,0.2363,0.2363,0.2395,0.2404,0.2432,0.2447,0.2454,0.2477,0.2481,0.2506,0.2509,0.2519,0.254,0.2542,0.2557,0.254,0.2583,0.2585,0.2586,0.2595,0.2597,0.2599,0,0,0,0,0,0.2355,0.235,0.2363,0.2369,0.2404,0.2432,0.2438,0.2467,0.2477,0.2486,0.2507,0.2509,0.2551,0.2541,0.2544,0.2559,0.2583,0.2584,0.2586,0.2593,0.2597,0.2599,0,0,0,0,0,0,0.2322,0.2355,0.237,0.2375,0.2406,0.244,0.2448,0.2469,0.2492,0.2496,0.2514,0.2519,0.2547,0.2548,0.2537,0.2578,0.2569,0.2571,0.2574,0.2577,0.2579,0.2561,0.2541,0,0,0,0,0,0.2316,0.2322,0.236,0.2364,0.2379,0.2415,0.243,0.2452,0.2478,0.2489,0.2511,0.2532,0.2554,0.2561,0.2581,0.2593,0.2599,0.2607,0.2609,0.2611,0.2599,0.2625,0.2628,0.2593,0.2593,0.2593,0,0,0.2302,0.2322,0.2325,0.2358,0.2382,0.2405,0.2425,0.245,0.2469,0.2487,0.2517,0.2542,0.2561,0.2586,0.2597,0.2588,0.2627,0.2613,0.2615,0.2601,0.2627,0.263,0.2633,0.2594,0.2594,0.2593,0,0,0.2288,0.2299,0.2308,0.2333,0.2373,0.2396,0.2405,0.2449,0.2468,0.2492,0.2523,0.2552,0.2575,0.2602,0.2613,0.2636,0.2644,0.2649,0.2639,0.2666,0.2669,0.2671,0.2693,0.2698,0.2644,0.2644,0.2644,0,0.2277,0.2293,0.2315,0.2336,0.2358,0.2392,0.2416,0.2434,0.248,0.2502,0.2499,0.2564,0.2579,0.2621,0.2629,0.264,0.2655,0.2627,0.2668,0.267,0.2673,0.2695,0.27,0.2645,0.2645,0.2645,0.2645,0,0.2276,0.2294,0.23,0.2339,0.2362,0.2384,0.242,0.2447,0.2468,0.2495,0.2542,0.2566,0.2606,0.262,0.2624,0.2662,0.2668,0.2673,0.2657,0.2677,0.2699,0.2704,0.2646,0.2646,0.2645,0.2645,0,0,0.225,0.2294,0.2299,0.2321,0.2369,0.2388,0.2418,0.2464,0.2492,0.252,0.2561,0.259,0.2614,0.2628,0.2655,0.2664,0.2696,0.2669,0.267,0.2685,0.2755,0.2766,0.2773,0.2711,0.2712,0.2712,0.2767,0,0.2253,0.2285,0.2311,0.2344,0.2367,0.2408,0.2433,0.2473,0.2508,0.2552,0.2579,0.2623,0.2614,0.2644,0.2653,0.2699,0.2706,0.268,0.2738,0.2739,0.2743,0.2778,0.255,0.2581,0.2772,0.2772,0.2773,0,0.2254,0.2277,0.2307,0.2357,0.2372,0.2392,0.2451,0.248,0.2542,0.2572,0.2616,0.2648,0.269,0.267,0.2726,0.2713,0.2724,0.2738,0.2742,0.2747,0.2759,0.2591,0.2582,0.2781,0.278,0.278,0.2779,0,0.2227,0.2277,0.2299,0.2316,0.2371,0.2394,0.2425,0.2485,0.253,0.2594,0.2641,0.2684,0.2731,0.2741,0.2778,0.2756,0.2832,0.2813,0.2829,0.283,0.2643,0.2627,0.2829,0.2829,0.2829,0.2829,0.2829,0,0.2221,0.224,0.2286,0.2296,0.2328,0.2372,0.2417,0.2462,0.2542,0.2594,0.265,0.2708,0.2749,0.2804,0.2801,0.2846,0.2858,0.283,0.2847,0.2643,0.2628,0.28,0.2796,0.2831,0.2831,0.283,0.283,0,0.2189,0.2219,0.2247,0.2298,0.2315,0.2335,0.2417,0.2452,0.2535,0.2611,0.264,0.2753,0.2822,0.2865,0.2909,0.2899,0.2923,0.2928,0.2692,0.268,0.289,0.2885,0.2942,0.2943,0.2944,0.2944,0.2945,0,0.2175,0.2184,0.2235,0.2247,0.2269,0.231,0.2339,0.2432,0.2481,0.263,0.2665,0.2783,0.2849,0.2949,0.2935,0.2952,0.297,0.2754,0.2667,0.2891,0.2902,0.2897,0.2892,0.2418,0.2414,0.2411,0.2409,0,0.2144,0.2161,0.2178,0.2206,0.2232,0.2269,0.2321,0.2365,0.2471,0.2557,0.2664,0.2738,0.2848,0.2781,0.2837,0.2806,0.2734,0.2696,0.2984,0.2447,0.2408,0.2416,0.2426,0.2381,0.2384,0.2386,0.2387,0.2388,0.2114,0.2114,0.2132,0.2155,0.2183,0.2203,0.2206,0.2271,0.2345,0.2412,0.2553,0.2575,0.262,0.2596,0.2538,0.2486,0.2666,0.2522,0.2526,0.2534,0.2486,0.2453,0.2424,0.2427,0.243,0.2432,0.2434,0,0.2055,0.2064,0.2081,0.2092,0.208,0.2131,0.2172,0.2138,0.2165,0.2252,0.2315,0.2166,0.217,0.2202,0.2098,0.2139,0.2059,0.204,0.189,0.1923,0.195,0.1865,0.1642,0.1639,0.1636,0.1634,0,0,0.2022,0.1999,0.2006,0.1971,0.1983,0.193,0.1928,0.1903,0.1923,0.1889,0.1882,0.2043,0.2149,0.1848,0.1839,0.1714,0.1791,0.1652,0.2295,0.2151,0.2174,0.225,0.2161,0,0,0,0,0]},{"header":{"parameterUnit":"m.s-1","parameterCategory":2,"la1":30.2991,"la2":30.254,"lo1":-89.0895,"lo2":-89.0444,"dy":0.0017,"dx":0.0017,"nx":28,"ny":28,"refTime":"2025-01-08T03:00:00:Z","depth":"2","parameterNumber":3,"parameterNumberName":"V-component_of_CURRENTS"},"data":[0,0,0,0,0,0,0,0,0,0,0,0,0,0,0,0,0,0,0,0,0,0,0,0,0,0,0,0,0,0,0,0,0,0,0,0,0,0,0,0,0,0,0,0,0,0,0,0,0,0,0,0,0,0,0,0,0,0,-0.01,-0.0101,0,-0.0208,-0.021,-0.0211,-0.0297,-0.0298,-0.0298,-0.0299,-0.0422,-0.0425,-0.0428,0,0,0,0,0,0,0,0,0,0,0,0,0,-0.0076,-0.0076,-0.01,-0.0101,-0.0102,-0.0208,-0.021,-0.0212,-0.0297,-0.0298,-0.0298,-0.0299,-0.0421,-0.0424,-0.0428,0,0,0,0,0,0,0,0,0,0,0,0,0,-0.013,-0.0076,-0.01,-0.0154,-0.0159,-0.0207,-0.021,-0.0212,-0.0297,-0.0298,-0.0299,-0.0299,-0.042,-0.0424,-0.0428,-0.0442,0,0,-0.0441,-0.0443,0,0,0,0,0,0,0,0,-0.0126,-0.0131,-0.0145,-0.015,-0.0156,-0.0236,-0.0246,-0.0288,-0.0297,-0.025,-0.0299,-0.03,-0.0358,-0.0367,-0.0392,-0.0447,-0.0453,-0.0442,-0.0444,-0.0446,-0.0447,0,0,0,0,0,0,0,-0.0122,-0.0127,-0.0147,-0.0146,-0.0153,-0.021,-0.0217,-0.0255,-0.0303,-0.0254,-0.0259,-0.0264,-0.0362,-0.0388,-0.0396,-0.0454,-0.0442,-0.0446,-0.0448,-0.045,-0.0524,-0.0524,0,0,0,0,0,0,-0.0093,-0.0123,-0.0144,-0.015,-0.0137,-0.0209,-0.0218,-0.0214,-0.0302,-0.0315,-0.0263,-0.0267,-0.038,-0.0391,-0.04,-0.0405,-0.0446,-0.045,-0.0453,-0.0525,-0.0524,-0.0524,0,0,0,0,0,0,-0.0092,-0.0093,-0.0139,-0.0136,-0.0145,-0.0207,-0.0203,-0.0215,-0.024,-0.0308,-0.0322,-0.0274,-0.0381,-0.0394,-0.0429,-0.0411,-0.0452,-0.0456,-0.0526,-0.0525,-0.0524,-0.0426,0,0,0,0,0,0,-0.0091,-0.0092,-0.0084,-0.0133,-0.0144,-0.0156,-0.0202,-0.0217,-0.024,-0.0246,-0.0322,-0.0334,-0.0383,-0.0422,-0.0433,-0.0418,-0.0459,-0.0526,-0.0525,-0.0524,-0.043,-0.0421,-0.0414,0,0,0,0,0,-0.0089,-0.0069,-0.0083,-0.0086,-0.0129,-0.0155,-0.0166,-0.0216,-0.0239,-0.0243,-0.0295,-0.0332,-0.0423,-0.0425,-0.0438,-0.0424,-0.0527,-0.0526,-0.0524,-0.0433,-0.0423,-0.0415,0,0,0,0,0,0,-0.0054,-0.0077,-0.0093,-0.0081,-0.011,-0.0167,-0.0175,-0.0207,-0.0253,-0.0258,-0.0327,-0.0343,-0.0371,-0.0408,-0.0409,-0.0442,-0.048,-0.0481,-0.0406,-0.0397,-0.0389,-0.0361,-0.0463,0,0,0,0,0,-0.0039,-0.0032,-0.0065,-0.0057,-0.0065,-0.0118,-0.0136,-0.0165,-0.0209,-0.0231,-0.0282,-0.0333,-0.0376,-0.0393,-0.0441,-0.0453,-0.0485,-0.0453,-0.0445,-0.0438,-0.0425,-0.0456,-0.045,-0.0519,-0.0519,-0.0519,0,0,-0.0023,-0.0035,-0.0031,-0.0049,-0.0077,-0.008,-0.0132,-0.0146,-0.0151,-0.0234,-0.0258,-0.0313,-0.0376,-0.0398,-0.0412,-0.0424,-0.0435,-0.0437,-0.043,-0.042,-0.0454,-0.0447,-0.0441,-0.0518,-0.0518,-0.0519,0,0,0.0013,0.0005,0.002,0.0005,-0.002,-0.0048,-0.0045,-0.0093,-0.0116,-0.0141,-0.0205,-0.024,-0.0306,-0.0343,-0.0371,-0.0346,-0.04,-0.0365,-0.0296,-0.0326,-0.032,-0.0316,-0.0342,-0.034,-0.0352,-0.0352,-0.0352,0,0.0029,0.0047,0.0019,0.0028,0.0024,-0.0025,-0.0011,-0.0038,-0.0092,-0.0104,-0.0132,-0.0225,-0.0276,-0.0301,-0.0294,-0.0327,-0.0355,-0.0324,-0.0315,-0.0311,-0.0308,-0.0336,-0.0335,-0.0347,-0.0348,-0.0348,-0.0349,0,0.0072,0.0084,0.0094,0.0093,0.0086,0.0091,0.0062,0.0049,0.0018,-0.0016,-0.005,-0.0122,-0.0174,-0.0194,-0.0237,-0.024,-0.0271,-0.0307,-0.0332,-0.0294,-0.0327,-0.0328,-0.034,-0.0342,-0.0343,-0.0345,0,0,0.0111,0.0122,0.0125,0.0139,0.0123,0.0125,0.0129,0.0116,0.0121,0.0069,0.0064,-0.0003,-0.0046,-0.008,-0.0139,-0.0158,-0.0161,-0.0211,-0.0215,-0.0227,-0.0225,-0.0248,-0.0252,-0.0198,-0.0198,-0.0198,-0.0254,0,0.0148,0.0189,0.018,0.0218,0.0238,0.0208,0.0215,0.0199,0.0172,0.0155,0.0093,0.006,-0.0001,-0.0025,-0.0052,-0.0144,-0.0161,-0.0142,-0.0269,-0.0273,-0.0289,-0.0253,-0.0228,-0.0277,-0.0256,-0.0256,-0.0256,0,0.0191,0.0213,0.026,0.0287,0.0293,0.0304,0.0314,0.0313,0.0281,0.0257,0.022,0.0163,0.0119,0.0062,-0.0044,-0.0032,-0.0111,-0.0175,-0.018,-0.0234,-0.0297,-0.0315,-0.0281,-0.0259,-0.0259,-0.0259,-0.0259,0,0.0236,0.0272,0.0315,0.0323,0.0341,0.0354,0.0356,0.0341,0.0357,0.0319,0.0324,0.0248,0.0213,0.0113,-0.0019,-0.0033,-0.0137,-0.0181,-0.0271,-0.0274,-0.0293,-0.0298,-0.024,-0.024,-0.024,-0.024,-0.024,0,0.0283,0.0317,0.034,0.0362,0.0415,0.0402,0.0447,0.0432,0.0432,0.0462,0.0378,0.0385,0.0225,0.0145,0.0017,-0.0125,-0.0113,-0.0245,-0.0284,-0.0259,-0.026,-0.0282,-0.0286,-0.0242,-0.0242,-0.0241,-0.0241,0,0.0328,0.034,0.0393,0.0424,0.0438,0.0472,0.0515,0.0548,0.0529,0.0566,0.0562,0.049,0.0378,0.0219,0.0048,-0.0074,-0.0214,-0.0268,-0.0224,-0.0256,-0.0339,-0.0338,-0.0369,-0.0371,-0.0371,-0.0372,-0.0373,0,0.0354,0.0387,0.0445,0.0482,0.0497,0.0546,0.0585,0.0591,0.0636,0.0637,0.0668,0.0576,0.053,0.0271,0.0036,-0.0185,-0.0218,-0.0312,-0.0334,-0.0315,-0.035,-0.0347,-0.0344,-0.0323,-0.0324,-0.0324,-0.0324,0,0.0406,0.0425,0.0471,0.0551,0.0602,0.0669,0.0725,0.078,0.0793,0.0823,0.0845,0.0808,0.0561,0.034,0.0027,-0.0127,-0.0278,-0.0324,-0.0313,-0.0294,-0.0276,-0.0309,-0.0307,-0.0326,-0.0325,-0.0325,-0.0325,-0.0325,0.0443,0.0488,0.0552,0.063,0.0694,0.078,0.0845,0.091,0.0987,0.103,0.0981,0.0921,0.0667,0.0271,0.0001,-0.0291,-0.0282,-0.0382,-0.0379,-0.0377,-0.0361,-0.0346,-0.0405,-0.0405,-0.0405,-0.0406,-0.0406,0,0.0495,0.0548,0.0627,0.0721,0.0805,0.0825,0.0936,0.0999,0.1095,0.1111,0.1115,0.0886,0.0623,0.0325,-0.0101,-0.0351,-0.0369,-0.0435,-0.0396,-0.0393,-0.039,-0.0373,-0.0422,-0.0423,-0.0423,-0.0424,0,0,0.0523,0.0612,0.0658,0.0801,0.0866,0.0979,0.1045,0.113,0.1169,0.1197,0.1154,0.1062,0.0708,0.0405,0.0062,-0.0183,-0.0235,-0.0237,-0.0197,-0.0108,-0.0103,-0.0333,-0.03,0,0,0,0,0]}],[{"header":{"parameterUnit":"m.s-1","parameterCategory":2,"la1":30.2991,"la2":30.254,"lo1":-89.0895,"lo2":-89.0444,"dy":0.0017,"dx":0.0017,"nx":28,"ny":28,"refTime":"2025-01-08T03:00:00:Z","depth":"4","parameterNumber":2,"parameterNumberName":"U-component_of_CURRENTS"},"data":[0,0,0,0,0,0,0,0,0,0,0,0,0,0,0,0,0,0,0,0,0,0,0,0,0,0,0,0,0,0,0,0,0,0,0,0,0,0,0,0,0,0,0,0,0,0,0,0,0,0,0,0,0,0,0,0,0,0,0.1446,0.1446,0,0.1458,0.1457,0.1457,0.1492,0.1493,0.1494,0.1495,0.1566,0.1567,0.1568,0,0,0,0,0,0,0,0,0,0,0,0,0,0.134,0.1342,0.1446,0.1446,0.1447,0.1458,0.1457,0.1457,0.1492,0.1493,0.1495,0.1496,0.1566,0.1567,0.1568,0,0,0,0,0,0,0,0,0,0,0,0,0,0.1368,0.1342,0.1445,0.1468,0.1471,0.1458,0.1457,0.1457,0.1491,0.1493,0.1495,0.1496,0.1565,0.1566,0.1568,0.1542,0,0,0.1572,0.1572,0,0,0,0,0,0,0,0,0.1367,0.1372,0.1464,0.1467,0.1469,0.1478,0.1446,0.149,0.1491,0.1479,0.1495,0.1497,0.1543,0.1546,0.1539,0.1545,0.1548,0.1572,0.1572,0.1573,0.1573,0,0,0,0,0,0,0,0.1365,0.1371,0.1446,0.1465,0.1468,0.1439,0.1446,0.1453,0.15,0.148,0.1484,0.1491,0.1545,0.1537,0.1541,0.1549,0.1572,0.1573,0.1573,0.1574,0.1675,0.1677,0,0,0,0,0,0,0.1376,0.137,0.1446,0.1447,0.1426,0.144,0.1448,0.1471,0.1499,0.1505,0.149,0.1493,0.1534,0.1539,0.1544,0.1636,0.1573,0.1574,0.1575,0.1673,0.1675,0.1677,0,0,0,0,0,0,0.1374,0.1383,0.1446,0.141,0.1417,0.1442,0.1466,0.147,0.1493,0.1506,0.1513,0.1513,0.1536,0.1542,0.1582,0.1634,0.1575,0.1576,0.1671,0.1674,0.1676,0.1743,0,0,0,0,0,0,0.1371,0.1383,0.1415,0.1412,0.142,0.1468,0.1465,0.1469,0.1495,0.1499,0.1527,0.1534,0.1538,0.158,0.1583,0.1635,0.1577,0.1668,0.1672,0.1675,0.1738,0.1747,0.1756,0,0,0,0,0,0.1367,0.14,0.1417,0.1427,0.146,0.147,0.1471,0.1489,0.1494,0.1513,0.1532,0.1534,0.1606,0.1581,0.1585,0.1639,0.1666,0.1671,0.1675,0.1734,0.1746,0.1755,0,0,0,0,0,0,0.1363,0.1406,0.1425,0.1469,0.1485,0.1478,0.1502,0.1501,0.1525,0.1546,0.1544,0.1552,0.1611,0.161,0.1583,0.168,0.1643,0.1648,0.1686,0.1697,0.1706,0.1707,0.1578,0,0,0,0,0,0.1379,0.1425,0.1444,0.1483,0.1498,0.1502,0.1512,0.1527,0.154,0.1553,0.157,0.1597,0.1623,0.1649,0.1669,0.1711,0.1706,0.1753,0.1762,0.1769,0.1774,0.1802,0.1813,0.1692,0.1692,0.1691,0,0,0.1386,0.1418,0.1444,0.1487,0.1502,0.1524,0.1513,0.1547,0.1573,0.1557,0.1609,0.1626,0.1639,0.1694,0.1722,0.1707,0.1804,0.1775,0.1781,0.1781,0.1808,0.1819,0.183,0.1695,0.1694,0.1694,0,0,0.1403,0.1457,0.1492,0.1514,0.1556,0.1563,0.1579,0.1598,0.1624,0.1663,0.1667,0.1711,0.1746,0.1771,0.1784,0.1851,0.1844,0.1871,0.1923,0.1951,0.196,0.1969,0.1984,0.1993,0.1881,0.1881,0.1882,0,0.1409,0.1462,0.1499,0.1531,0.1556,0.1584,0.1611,0.1636,0.1666,0.1692,0.1701,0.1764,0.1783,0.1838,0.1873,0.1872,0.1879,0.188,0.1961,0.1969,0.1977,0.199,0.1999,0.1885,0.1885,0.1884,0.1884,0,0.1438,0.1489,0.1512,0.1571,0.16,0.1636,0.1675,0.1717,0.1752,0.1771,0.1844,0.1867,0.1905,0.1929,0.1923,0.1997,0.1981,0.1963,0.1931,0.1993,0.2003,0.2011,0.189,0.1889,0.1888,0.1887,0,0,0.142,0.1515,0.1525,0.1561,0.1632,0.1651,0.1718,0.1771,0.1812,0.1869,0.1919,0.1982,0.2,0.2016,0.2026,0.2061,0.2127,0.2046,0.2045,0.2053,0.2187,0.2062,0.2059,0.2125,0.2127,0.2128,0.2173,0,0.143,0.1495,0.1544,0.1606,0.1641,0.17,0.1751,0.1811,0.1865,0.1924,0.1978,0.2032,0.2032,0.2065,0.2101,0.2119,0.2153,0.2117,0.213,0.213,0.2006,0.2066,0.2134,0.2179,0.2181,0.2182,0.2183,0,0.1434,0.1483,0.1546,0.1633,0.1655,0.1699,0.1792,0.1841,0.1933,0.198,0.2049,0.2082,0.2159,0.2142,0.2212,0.2191,0.22,0.2208,0.2209,0.2073,0.2021,0.2103,0.2198,0.2197,0.2196,0.2195,0.2194,0,0.1391,0.1482,0.1538,0.1568,0.1666,0.1715,0.1772,0.1862,0.1921,0.2021,0.2076,0.2149,0.2208,0.2234,0.2266,0.2248,0.2326,0.2294,0.2188,0.2179,0.2247,0.2237,0.2339,0.2339,0.2339,0.2338,0.2338,0,0.137,0.1417,0.1529,0.1557,0.1628,0.1703,0.1785,0.1851,0.1957,0.2018,0.2106,0.2159,0.2238,0.2289,0.2292,0.2269,0.2349,0.2205,0.2186,0.2275,0.2268,0.2253,0.2243,0.234,0.234,0.2339,0.2339,0,0.131,0.1385,0.1454,0.157,0.1611,0.1662,0.1796,0.1845,0.1958,0.2043,0.2085,0.22,0.2253,0.2309,0.2356,0.2295,0.2286,0.2257,0.2361,0.2345,0.2112,0.2105,0.213,0.2126,0.2122,0.212,0.2117,0,0.1282,0.1315,0.145,0.1494,0.1554,0.1646,0.1704,0.1833,0.1884,0.2042,0.2067,0.2178,0.2231,0.2198,0.2264,0.226,0.2235,0.2215,0.215,0.2113,0.2093,0.2091,0.2088,0.2112,0.2111,0.211,0.2109,0,0.1224,0.1289,0.1346,0.1439,0.1513,0.1583,0.1676,0.1707,0.1839,0.1964,0.1995,0.2024,0.2084,0.2107,0.2131,0.2122,0.2215,0.2179,0.2185,0.2124,0.2092,0.2074,0.2076,0.2098,0.2099,0.21,0.2101,0,0.1183,0.1209,0.1295,0.1365,0.1451,0.1487,0.1551,0.1605,0.1674,0.1838,0.1841,0.1949,0.2054,0.2037,0.2055,0.2044,0.2004,0.1928,0.1946,0.196,0.1885,0.1818,0.173,0,0,0,0,0,0.113,0.1153,0.1213,0.128,0.1359,0.1408,0.1514,0.1576,0.1704,0.1678,0.1754,0.1792,0.182,0.1881,0.1834,0.1989,0.2019,0.1926,0.1943,0.2033,0.2047,0.1974,0,0,0,0,0,0,0.1094,0.1148,0.1177,0.1192,0.1218,0.1288,0.1348,0.1436,0.1427,0.1561,0.1583,0.1686,0.174,0.1823,0.1798,0.1818,0.1792,0.2001,0.1996,0.2026,0.2038,0.2049,0.1979,0,0,0,0,0]},{"header":{"parameterUnit":"m.s-1","parameterCategory":2,"la1":30.2991,"la2":30.254,"lo1":-89.0895,"lo2":-89.0444,"dy":0.0017,"dx":0.0017,"nx":28,"ny":28,"refTime":"2025-01-08T03:00:00:Z","depth":"4","parameterNumber":3,"parameterNumberName":"V-component_of_CURRENTS"},"data":[0,0,0,0,0,0,0,0,0,0,0,0,0,0,0,0,0,0,0,0,0,0,0,0,0,0,0,0,0,0,0,0,0,0,0,0,0,0,0,0,0,0,0,0,0,0,0,0,0,0,0,0,0,0,0,0,0,0,0.0215,0.0215,0,0.0218,0.0218,0.0218,0.0224,0.0224,0.0224,0.0224,0.0217,0.0217,0.0217,0,0,0,0,0,0,0,0,0,0,0,0,0,0.022,0.022,0.0215,0.0215,0.0215,0.0218,0.0218,0.0218,0.0224,0.0224,0.0224,0.0224,0.0217,0.0217,0.0217,0,0,0,0,0,0,0,0,0,0,0,0,0,0.0221,0.022,0.0215,0.0217,0.0217,0.0218,0.0218,0.0218,0.0224,0.0224,0.0224,0.0224,0.0217,0.0217,0.0217,0.0214,0,0,0.0216,0.0216,0,0,0,0,0,0,0,0,0.0221,0.0221,0.0217,0.0217,0.0217,0.022,0.0217,0.0216,0.0224,0.0222,0.0224,0.0224,0.0217,0.0216,0.0218,0.0214,0.0214,0.0216,0.0216,0.0216,0.0215,0,0,0,0,0,0,0,0.0221,0.0221,0.0217,0.0217,0.0217,0.022,0.0221,0.0217,0.022,0.0223,0.0223,0.0222,0.0217,0.0219,0.0218,0.0214,0.0216,0.0216,0.0215,0.0215,0.0191,0.0191,0,0,0,0,0,0,0.0218,0.0221,0.0217,0.0217,0.0218,0.022,0.022,0.022,0.022,0.022,0.0222,0.0222,0.0219,0.0219,0.0218,0.0207,0.0216,0.0215,0.0215,0.0191,0.0191,0.019,0,0,0,0,0,0,0.0218,0.0218,0.0217,0.0218,0.0218,0.022,0.0219,0.022,0.0225,0.0219,0.0219,0.0226,0.0219,0.0218,0.022,0.0207,0.0215,0.0215,0.0192,0.0191,0.0191,0.0189,0,0,0,0,0,0,0.0218,0.0218,0.0218,0.0218,0.0218,0.0217,0.0219,0.022,0.0223,0.0224,0.0223,0.0222,0.0219,0.022,0.0219,0.0206,0.0215,0.0193,0.0192,0.0191,0.019,0.0189,0.0188,0,0,0,0,0,0.0219,0.022,0.0218,0.0217,0.0217,0.0217,0.0218,0.022,0.0224,0.0225,0.0227,0.0223,0.0213,0.022,0.0219,0.0206,0.0193,0.0192,0.0191,0.019,0.0189,0.0188,0,0,0,0,0,0,0.0227,0.022,0.0218,0.0218,0.0217,0.0218,0.022,0.0222,0.0226,0.0226,0.0225,0.0225,0.0219,0.0214,0.0221,0.0195,0.0199,0.0197,0.0199,0.0197,0.0196,0.0205,0.0214,0,0,0,0,0,0.0226,0.0223,0.022,0.022,0.0219,0.022,0.0221,0.0221,0.0223,0.0225,0.0225,0.022,0.0213,0.0208,0.0203,0.0194,0.0179,0.0181,0.018,0.0179,0.0184,0.015,0.0147,0.0187,0.0187,0.0187,0,0,0.0231,0.0226,0.0226,0.0221,0.0221,0.0226,0.0222,0.0222,0.0226,0.0223,0.023,0.022,0.0211,0.02,0.0195,0.0194,0.0158,0.0178,0.0177,0.0183,0.0149,0.0145,0.0142,0.0186,0.0186,0.0186,0,0,0.0243,0.0233,0.0237,0.0235,0.0231,0.0229,0.023,0.0229,0.0228,0.0228,0.0225,0.021,0.0205,0.0192,0.0185,0.0173,0.0157,0.0167,0.0164,0.0131,0.0127,0.0124,0.0094,0.0088,0.0161,0.0161,0.0161,0,0.025,0.0254,0.0239,0.0245,0.0249,0.0233,0.0245,0.0237,0.0238,0.0238,0.0229,0.0212,0.0198,0.0185,0.0176,0.017,0.0152,0.0171,0.0129,0.0126,0.0123,0.0093,0.0086,0.0161,0.0161,0.0161,0.0161,0,0.0266,0.0271,0.0273,0.0274,0.0275,0.0278,0.0267,0.0263,0.0255,0.0248,0.0232,0.0208,0.02,0.0181,0.0174,0.0144,0.0139,0.0135,0.0134,0.0119,0.0088,0.0081,0.0161,0.0161,0.0161,0.0161,0,0,0.0281,0.0285,0.0287,0.03,0.0291,0.0298,0.0293,0.029,0.0295,0.0265,0.0267,0.0227,0.0211,0.0201,0.018,0.014,0.0091,0.0127,0.0125,0.01,0.0018,0.0016,0.0008,0.008,0.0079,0.0078,0.0004,0,0.0302,0.0325,0.0318,0.0344,0.0357,0.0341,0.0343,0.0333,0.0318,0.031,0.0262,0.0255,0.0219,0.0213,0.0165,0.0121,0.0074,0.0111,0.0035,0.0033,0.0035,0.0001,0.0075,-0.0001,-0.0003,-0.0004,-0.0005,0,0.0322,0.0336,0.0367,0.0387,0.0392,0.0401,0.0407,0.0405,0.0378,0.0364,0.0332,0.0306,0.0252,0.022,0.0118,0.0145,0.0081,0.0033,0.0029,0.0025,0.0019,0.0019,-0.0017,-0.0016,-0.0015,-0.0014,-0.0013,0,0.0348,0.0372,0.0403,0.0408,0.0422,0.0434,0.0437,0.0424,0.0434,0.04,0.0403,0.0334,0.0308,0.0216,0.0116,0.0116,-0.0002,-0.0011,-0.0076,-0.0077,-0.005,-0.0046,-0.0093,-0.0093,-0.0092,-0.0092,-0.0092,0,0.0372,0.0397,0.042,0.0435,0.0474,0.0467,0.05,0.0488,0.0483,0.0497,0.0436,0.0427,0.0304,0.0228,0.0126,0.0006,0.0005,-0.0082,-0.0099,-0.005,-0.0045,-0.0056,-0.005,-0.0095,-0.0094,-0.0094,-0.0093,0,0.0396,0.0408,0.0447,0.0474,0.0488,0.0514,0.0551,0.057,0.0556,0.0571,0.0566,0.0496,0.039,0.0265,0.0115,0.0031,-0.0088,-0.0131,-0.0067,-0.0078,-0.0145,-0.0139,-0.0213,-0.0214,-0.0215,-0.0215,-0.0216,0,0.0409,0.0432,0.0482,0.0511,0.0527,0.0567,0.0597,0.0604,0.0627,0.0613,0.0621,0.0535,0.047,0.0261,0.0118,-0.0079,-0.0108,-0.017,-0.0168,-0.015,-0.0159,-0.0152,-0.0145,-0.0217,-0.0217,-0.0217,-0.0217,0,0.0434,0.0454,0.0487,0.0548,0.0591,0.0641,0.0681,0.0706,0.071,0.0708,0.0668,0.0559,0.0437,0.0266,0.0114,-0.0028,-0.0129,-0.0177,-0.0177,-0.0176,-0.0155,-0.0162,-0.0155,-0.0219,-0.0219,-0.0219,-0.0219,0,0.0454,0.0481,0.0527,0.058,0.0639,0.0687,0.071,0.0732,0.0751,0.0733,0.0717,0.0581,0.0503,0.0292,0.0152,0.0011,-0.0029,-0.0074,-0.008,-0.0079,-0.0021,0.0026,-0.0003,0,0,0,0,0,0.0468,0.05,0.0553,0.0609,0.0668,0.0703,0.0755,0.077,0.0782,0.0762,0.0741,0.0626,0.0413,0.0321,0.018,0.0128,-0.0059,-0.0043,-0.0115,-0.0232,-0.0229,-0.0185,0,0,0,0,0,0,0.0476,0.0528,0.0553,0.0624,0.0666,0.0733,0.0767,0.0776,0.0764,0.0753,0.0644,0.059,0.0385,0.0496,0.0178,0.0135,0.0069,-0.0141,-0.0144,-0.0233,-0.0231,-0.0229,-0.0182,0,0,0,0,0]}]]